Stündliche Wetter Abondant

Heute, 24 Juni, Donnerstag

Zeit Temperatur Niederschläge Wind Luftdruck Luftfeuchtigkeit
00:00 +9°C° 0 mm 2 m/S 754 mmHg 94%
01:00 +8°C° 0 mm 2 m/S 753 mmHg 94%
02:00 +8°C° 0 mm 2 m/S 753 mmHg 94%
03:00 +7°C° 0 mm 2 m/S 753 mmHg 95%
04:00 +8°C° 0 mm 3 m/S 753 mmHg 91%
05:00 +9°C° 0 mm 3 m/S 753 mmHg 87%
06:00 +10°C° 0 mm 3 m/S 754 mmHg 83%
07:00 +12°C° 0 mm 3 m/S 754 mmHg 75%
08:00 +14°C° 0 mm 3 m/S 754 mmHg 67%
09:00 +16°C° 0 mm 3 m/S 754 mmHg 59%
10:00 +17°C° 0 mm 3 m/S 754 mmHg 56%
11:00 +18°C° 0 mm 3 m/S 754 mmHg 53%
12:00 +19°C° 0 mm 3 m/S 754 mmHg 50%
13:00 +20°C° 0 mm 3 m/S 753 mmHg 49%
14:00 +20°C° 0 mm 3 m/S 753 mmHg 49%
15:00 +21°C° 0 mm 3 m/S 753 mmHg 48%
16:00 +20°C° 0 mm 3 m/S 753 mmHg 54%
17:00 +19°C° 0 mm 3 m/S 753 mmHg 60%
18:00 +19°C° 0 mm 4 m/S 753 mmHg 66%
19:00 +17°C° 0 mm 3 m/S 753 mmHg 73%
20:00 +14°C° 0 mm 3 m/S 754 mmHg 81%
21:00 +13°C° 0 mm 2 m/S 754 mmHg 89%
22:00 +12°C° 0 mm 2 m/S 754 mmHg 89%
23:00 +10°C° 0 mm 2 m/S 754 mmHg 90%

Morgen, 25 Juni, Freitag

Zeit Temperatur Niederschläge Wind Luftdruck Luftfeuchtigkeit
00:00 +10°C° 0 mm 1 m/S 753 mmHg 90%
01:00 +10°C° 0 mm 1 m/S 753 mmHg 90%
02:00 +9°C° 0 mm 2 m/S 753 mmHg 90%
03:00 +9°C° 0 mm 2 m/S 753 mmHg 90%
04:00 +10°C° 0 mm 2 m/S 753 mmHg 88%
05:00 +12°C° 0 mm 2 m/S 753 mmHg 86%
06:00 +12°C° 0 mm 3 m/S 752 mmHg 83%
07:00 +13°C° 0 mm 3 m/S 752 mmHg 79%
08:00 +14°C° 0 mm 3 m/S 752 mmHg 76%
09:00 +15°C° 0 mm 4 m/S 752 mmHg 72%
10:00 +17°C° 0 mm 4 m/S 752 mmHg 73%
11:00 +17°C° 0 mm 4 m/S 752 mmHg 75%
12:00 +18°C° 0 mm 4 m/S 751 mmHg 76%
13:00 +18°C° 0.1 mm 3 m/S 751 mmHg 77%
14:00 +18°C° 0.1 mm 3 m/S 751 mmHg 78%
15:00 +18°C° 0.1 mm 2 m/S 751 mmHg 79%
16:00 +18°C° 0.1 mm 2 m/S 751 mmHg 82%
17:00 +17°C° 0.1 mm 2 m/S 750 mmHg 85%
18:00 +18°C° 0.1 mm 1 m/S 750 mmHg 88%
19:00 +16°C° 0.3 mm 1 m/S 750 mmHg 91%
20:00 +15°C° 0.3 mm 1 m/S 750 mmHg 93%
21:00 +15°C° 0.3 mm 2 m/S 751 mmHg 96%
22:00 +15°C° 0.6 mm 1 m/S 751 mmHg 96%
23:00 +14°C° 0.6 mm 1 m/S 750 mmHg 97%

übermorgen, 26 Juni, Samstag

Zeit Temperatur Niederschläge Wind Luftdruck Luftfeuchtigkeit
00:00 +14°C° 0.6 mm 1 m/S 750 mmHg 97%
01:00 +14°C° 0.1 mm 1 m/S 750 mmHg 97%
02:00 +14°C° 0.1 mm 1 m/S 750 mmHg 97%
03:00 +14°C° 0.1 mm 1 m/S 750 mmHg 97%
04:00 +14°C° 0 mm 1 m/S 750 mmHg 97%
05:00 +14°C° 0 mm 1 m/S 750 mmHg 96%
06:00 +15°C° 0 mm 1 m/S 750 mmHg 95%
07:00 +16°C° 0 mm 1 m/S 750 mmHg 90%
08:00 +17°C° 0 mm 2 m/S 749 mmHg 85%
09:00 +18°C° 0 mm 2 m/S 749 mmHg 81%
10:00 +18°C° 0.3 mm 2 m/S 749 mmHg 80%
11:00 +19°C° 0.3 mm 2 m/S 749 mmHg 79%
12:00 +19°C° 0.3 mm 2 m/S 749 mmHg 79%
13:00 +20°C° 0.6 mm 2 m/S 749 mmHg 76%
14:00 +21°C° 0.6 mm 2 m/S 748 mmHg 74%
15:00 +21°C° 0.6 mm 2 m/S 748 mmHg 71%
16:00 +22°C° 0.6 mm 1 m/S 748 mmHg 74%
17:00 +22°C° 0.6 mm 1 m/S 747 mmHg 77%
18:00 +22°C° 0.6 mm 1 m/S 747 mmHg 80%
19:00 +19°C° 0 mm 2 m/S 747 mmHg 84%
20:00 +18°C° 0 mm 2 m/S 747 mmHg 88%
21:00 +16°C° 0 mm 3 m/S 746 mmHg 92%
22:00 +16°C° 0.2 mm 3 m/S 746 mmHg 92%
23:00 +16°C° 0.2 mm 3 m/S 746 mmHg 93%

27 Juni, Sonntag

Zeit Temperatur Niederschläge Wind Luftdruck Luftfeuchtigkeit
00:00 +16°C° 0.2 mm 3 m/S 746 mmHg 94%
01:00 +16°C° 0.6 mm 2 m/S 745 mmHg 95%
02:00 +16°C° 0.6 mm 2 m/S 745 mmHg 96%
03:00 +16°C° 0.6 mm 1 m/S 745 mmHg 97%
04:00 +16°C° 0.5 mm 1 m/S 745 mmHg 97%
05:00 +16°C° 0.5 mm 2 m/S 745 mmHg 97%
06:00 +17°C° 0.5 mm 2 m/S 745 mmHg 97%
07:00 +17°C° 0.1 mm 2 m/S 745 mmHg 94%
08:00 +17°C° 0.1 mm 2 m/S 745 mmHg 91%
09:00 +18°C° 0.1 mm 3 m/S 745 mmHg 88%
10:00 +19°C° 0 mm 3 m/S 745 mmHg 83%
11:00 +20°C° 0 mm 2 m/S 745 mmHg 77%
12:00 +20°C° 0 mm 2 m/S 745 mmHg 72%
13:00 +20°C° 0.4 mm 3 m/S 746 mmHg 75%
14:00 +21°C° 0.4 mm 3 m/S 746 mmHg 78%
15:00 +21°C° 0.4 mm 4 m/S 746 mmHg 80%
16:00 +20°C° 0.4 mm 4 m/S 746 mmHg 83%
17:00 +19°C° 0.4 mm 3 m/S 746 mmHg 86%
18:00 +18°C° 0.4 mm 3 m/S 746 mmHg 88%
19:00 +17°C° 0.1 mm 3 m/S 746 mmHg 91%
20:00 +16°C° 0.1 mm 3 m/S 747 mmHg 93%
21:00 +14°C° 0.1 mm 3 m/S 747 mmHg 95%
22:00 +15°C° 0.5 mm 2 m/S 747 mmHg 95%
23:00 +14°C° 0.5 mm 2 m/S 747 mmHg 95%

28 Juni, Montag

Zeit Temperatur Niederschläge Wind Luftdruck Luftfeuchtigkeit
00:00 +14°C° 0.5 mm 2 m/S 748 mmHg 96%
01:00 +14°C° 0.1 mm 2 m/S 748 mmHg 95%
02:00 +13°C° 0.1 mm 3 m/S 748 mmHg 95%
03:00 +12°C° 0.1 mm 3 m/S 748 mmHg 94%
04:00 +13°C° 0 mm 3 m/S 748 mmHg 93%
05:00 +13°C° 0 mm 3 m/S 748 mmHg 92%
06:00 +13°C° 0 mm 3 m/S 748 mmHg 91%
07:00 +14°C° 0 mm 3 m/S 748 mmHg 81%
08:00 +17°C° 0 mm 3 m/S 749 mmHg 72%
09:00 +18°C° 0 mm 3 m/S 749 mmHg 63%
10:00 +19°C° 0 mm 4 m/S 749 mmHg 59%
11:00 +20°C° 0 mm 4 m/S 749 mmHg 55%
12:00 +21°C° 0 mm 4 m/S 749 mmHg 51%
13:00 +21°C° 0 mm 4 m/S 748 mmHg 51%
14:00 +21°C° 0 mm 4 m/S 748 mmHg 51%
15:00 +22°C° 0 mm 4 m/S 748 mmHg 51%
16:00 +20°C° 0.1 mm 4 m/S 748 mmHg 62%
17:00 +18°C° 0.1 mm 3 m/S 748 mmHg 73%
18:00 +17°C° 0.1 mm 3 m/S 748 mmHg 83%
19:00 +16°C° 0.1 mm 3 m/S 748 mmHg 87%
20:00 +16°C° 0.1 mm 2 m/S 749 mmHg 90%
21:00 +15°C° 0.1 mm 2 m/S 749 mmHg 93%
22:00 +15°C° 0.3 mm 2 m/S 749 mmHg 94%
23:00 +15°C° 0.3 mm 1 m/S 749 mmHg 95%

29 Juni, Dienstag

Zeit Temperatur Niederschläge Wind Luftdruck Luftfeuchtigkeit
00:00 +15°C° 0.3 mm 1 m/S 749 mmHg 96%
01:00 +14°C° 0.1 mm 1 m/S 749 mmHg 96%
02:00 +14°C° 0.1 mm 1 m/S 749 mmHg 96%
03:00 +14°C° 0.1 mm 1 m/S 749 mmHg 96%
04:00 +14°C° 0.2 mm 1 m/S 749 mmHg 95%
05:00 +14°C° 0.2 mm 1 m/S 749 mmHg 93%
06:00 +15°C° 0.2 mm 1 m/S 749 mmHg 92%
07:00 +16°C° 0.2 mm 2 m/S 749 mmHg 87%
08:00 +17°C° 0.2 mm 2 m/S 749 mmHg 81%
09:00 +18°C° 0.2 mm 3 m/S 750 mmHg 76%
10:00 +19°C° 0.5 mm 3 m/S 750 mmHg 73%
11:00 +19°C° 0.5 mm 3 m/S 750 mmHg 71%
12:00 +20°C° 0.5 mm 4 m/S 750 mmHg 68%
13:00 +20°C° 0.7 mm 4 m/S 750 mmHg 68%
14:00 +20°C° 0.7 mm 3 m/S 750 mmHg 69%
15:00 +20°C° 0.7 mm 3 m/S 750 mmHg 69%
16:00 +20°C° 0.9 mm 3 m/S 750 mmHg 74%
17:00 +19°C° 0.9 mm 2 m/S 750 mmHg 78%
18:00 +19°C° 0.9 mm 2 m/S 750 mmHg 83%
19:00 +18°C° 0.5 mm 2 m/S 750 mmHg 86%
20:00 +17°C° 0.5 mm 2 m/S 750 mmHg 90%
21:00 +16°C° 0.5 mm 2 m/S 751 mmHg 93%
22:00 +15°C° 0.1 mm 2 m/S 751 mmHg 93%
23:00 +15°C° 0.1 mm 2 m/S 751 mmHg 94%
Mehr zeigen

Wir brauchen deine Erlaubnis

Meteoprog und unser Service Anbieter werden persönliche Daten aufbewahren, so wie Cookies, Geräte Bezeichnung oder ähnliche Technologien von deinem Gerät und Prozess, so wie Persönliche Daten Inhalte und Werbungen, genauso wie social Media und den Verkehr zu analysieren.

  • Aufbewahrung und/oder Zugang zu deiner Geräte Informationen.

    Cookies, Geräte Bezeichnung oder andere Informationen, können aufbewahrt oder Zugang zu deinem Gerät erhalten, für den Grund, der oben angegeben wird.

  • Personalisierte Werbung und Inhalte, Messungen, Einblick in das Publikum und Produkt Entwicklung.

    Werbungen und Inhalte können personalisiert werden, basierend auf ein Profil. Mehr Daten können besser personalisierte Werbungen und Inhalte hinzufügen. Werbung und Inhalte können gezeigt und gemessen werden. Einblicke über das Publikum, welche die Werbung gesehen haben und den Inhalt, können abgeleitet werden. So wie Daten können genutzt werden, um es zu verbessern oder die Benutzer Erfahrung zu verbessern das System und die Software.

Wenn du “Ich stimme zu” klickst, erlaubst du uns, die Cookies zu benutzen die Geräte Bezeichnung, den Web oder ähnliche Technologien zu benutzen. Deine Settings, können in deinem Gerät bei deinem Browser geändert werden.

Für den bestimmten Zweck, berechtigten Interessen beruhen darauf, mehr als auf den Inhalt. Du kannst mehr darüber in unseren Privaten und Cookie Politik lesen.